Wind_Speed
14 14 14 14 15 15 15 15 16 16 17 17 18 18 18 19 19 17 15 14 14 14 14 15 16 18 19 21 21 22 22 22 22 22 21 16 18 26 29 30 29 29 30 28 25 21 19 15 13 13 12 15 16 14 15 15 14 14 12 13 16 15 13 13 10 9 10 8 9 11 12 5 4 3 5 4 6 7 10 13 12 11 11 12 13 15 15 15
14 14 14 14 15 15 15 15 15 16 16 17 18 18 18 18 18 18 16 14 14 13 14 15 15 16 17 19 20 22 22 22 22 21 19 16 19 25 27 30 31 31 32 29 26 23 20 17 16 16 14 14 18 17 17 16 15 15 13 11 15 16 13 12 10 9 9 5 6 9 10 6 5 4 3 3 5 6 7 11 14 14 13 13 14 15 14 14
15 15 14 15 15 15 15 15 15 16 16 17 17 18 18 18 18 18 17 16 14 14 14 15 16 16 16 17 19 21 21 21 21 19 19 17 19 22 25 30 31 32 32 30 27 25 22 19 17 18 15 14 18 20 18 17 15 15 13 11 13 15 14 13 12 11 10 7 5 7 9 8 3 4 2 3 4 5 4 6 10 13 13 13 14 14 13 14
17 16 15 15 15 15 16 16 16 16 16 17 17 18 18 18 18 17 17 17 15 14 14 15 16 16 16 16 17 19 20 20 18 17 17 17 19 23 26 28 31 32 33 31 29 27 25 23 19 18 17 14 17 20 20 19 16 15 15 12 10 11 14 15 13 12 12 9 6 6 8 8 5 1 3 1 5 6 6 5 6 8 10 11 13 14 14 14
17 17 17 16 15 15 15 16 16 16 16 17 18 18 18 18 18 18 18 17 16 15 14 15 16 16 16 16 16 17 18 16 14 16 16 16 20 24 26 29 31 32 33 33 31 30 28 25 21 19 18 16 17 21 22 20 17 17 16 13 9 10 13 16 14 13 13 12 9 7 6 7 5 3 4 3 3 7 8 7 7 7 7 7 9 11 13 14
18 18 18 17 17 16 15 16 16 17 17 17 18 18 19 19 18 18 18 18 17 16 15 16 16 17 17 17 16 16 17 12 9 12 13 15 19 24 27 29 31 33 35 34 33 32 29 26 23 21 20 18 18 20 22 22 20 19 18 15 13 13 13 17 18 16 15 14 11 7 6 6 4 4 5 4 5 7 8 8 8 8 7 6 7 8 8 9
18 18 18 18 18 18 17 16 16 16 17 17 18 19 19 19 19 18 18 19 19 18 16 16 17 17 17 18 16 16 17 12 10 13 11 13 19 24 27 29 32 34 36 36 35 34 30 28 25 22 21 20 19 19 19 21 21 21 20 16 16 14 14 18 20 17 18 14 7 7 9 6 2 3 3 3 5 5 7 8 8 8 8 7 7 7 6 8
18 18 18 18 19 18 18 17 17 16 16 17 18 19 19 19 20 19 19 19 20 20 17 17 17 17 18 18 18 16 15 12 14 16 13 14 19 25 28 29 32 35 37 37 36 34 32 30 25 23 22 20 19 17 17 19 19 20 20 18 17 14 14 19 21 18 18 14 9 12 11 5 2 2 2 4 5 4 4 8 8 8 7 6 6 7 7 8
18 18 18 18 19 19 19 19 18 17 16 17 17 18 19 19 19 19 19 19 20 21 19 18 17 18 18 18 19 15 11 12 14 15 14 15 19 26 28 29 32 35 38 38 36 35 33 30 26 23 22 20 19 17 17 18 18 18 18 17 16 15 16 20 22 20 19 17 15 16 13 9 7 5 4 4 6 5 3 7 8 8 8 6 7 8 7 7
19 19 19 19 19 19 19 19 19 18 17 17 17 17 18 18 18 18 19 20 20 21 21 20 18 19 19 18 20 13 9 13 13 14 15 16 20 26 29 29 33 36 38 38 37 36 34 30 26 23 22 20 19 18 17 18 19 19 16 12 12 14 18 22 23 21 21 19 17 17 14 12 11 9 6 4 5 7 5 6 9 10 9 8 7 9 9 8
19 19 19 19 19 19 19 19 19 19 18 18 18 18 18 18 18 18 19 20 20 21 21 21 20 20 19 20 19 13 10 14 14 15 16 16 20 26 29 30 33 36 38 38 38 36 33 30 26 24 22 21 20 18 17 18 21 22 17 11 13 17 20 24 25 24 22 21 20 19 14 12 13 11 8 5 5 7 7 8 10 11 11 10 9 9 10 10
19 19 19 19 20 20 20 20 19 19 19 19 19 19 19 18 18 18 19 20 21 21 22 22 22 21 20 20 15 11 13 15 14 14 16 16 19 26 29 31 34 37 38 38 37 36 32 30 28 25 22 21 20 16 14 18 22 21 17 16 19 20 23 26 26 25 23 23 23 21 18 15 14 10 9 10 8 7 9 10 10 11 12 12 11 10 10 12
19 19 19 19 20 20 20 20 20 19 19 19 20 20 20 19 19 19 20 21 21 22 22 23 24 23 22 17 10 10 16 15 13 12 14 16 18 25 29 32 36 39 40 39 37 34 31 30 28 26 24 21 19 15 12 16 20 19 16 21 22 23 25 28 28 26 24 24 24 23 21 15 10 10 11 11 11 11 12 12 12 12 12 13 13 12 12 13
20 20 20 20 20 20 21 21 20 20 20 20 20 21 21 20 20 20 21 21 21 22 23 24 24 24 23 16 8 11 16 13 12 12 13 16 18 24 29 31 36 39 41 41 38 34 30 29 29 27 26 22 17 13 14 14 15 18 20 22 26 28 29 30 30 28 27 27 25 24 23 14 8 11 12 12 13 13 14 15 15 13 13 14 14 14 14 14
21 21 20 21 21 21 21 21 20 20 20 21 21 22 22 20 20 20 21 22 22 23 23 24 24 25 24 15 9 14 16 13 13 15 16 18 19 22 28 31 34 38 41 42 39 35 31 30 30 28 26 23 17 13 14 13 15 22 25 25 29 31 31 32 32 30 29 29 26 26 25 18 12 12 12 12 14 14 15 15 15 16 15 14 14 15 15 15
21 21 21 21 21 22 22 22 21 20 20 22 22 22 23 21 21 21 21 22 23 23 23 24 23 24 24 15 10 14 14 14 15 17 20 21 21 23 27 31 33 36 40 41 38 35 34 32 30 29 26 23 19 15 13 14 20 27 29 30 33 33 32 33 33 31 29 29 28 27 24 17 12 12 11 12 14 15 16 16 16 16 16 15 14 15 16 17
22 22 22 22 22 22 23 23 21 20 21 22 22 23 24 22 22 21 21 22 23 23 24 25 24 24 22 14 11 13 13 14 15 19 22 24 24 25 28 32 33 35 37 38 38 36 36 34 32 31 27 24 22 18 16 21 28 31 31 32 34 35 35 35 35 33 33 32 27 26 24 15 9 9 10 11 11 14 16 17 17 17 17 16 15 15 17 18
23 23 23 22 22 23 24 23 22 21 21 23 24 24 24 24 23 22 21 22 22 23 24 24 24 23 18 10 9 12 14 15 16 20 24 25 25 25 29 32 33 35 35 36 37 37 36 35 33 31 29 27 25 22 21 26 34 36 34 34 36 37 36 37 35 32 35 36 29 25 24 19 13 10 10 10 10 11 12 15 16 18 18 17 16 17 17 18
24 24 23 23 23 23 24 24 23 22 22 23 25 25 25 25 24 23 21 21 21 22 24 24 24 25 20 13 8 8 13 16 18 21 24 26 26 26 28 31 32 34 35 36 38 38 37 37 36 34 33 31 29 26 22 22 31 37 35 36 38 39 39 39 36 31 33 36 32 27 24 21 18 14 11 11 10 8 10 13 16 18 19 18 18 18 18 18
25 25 24 23 23 23 24 24 23 23 23 23 25 26 26 26 26 25 23 22 22 22 22 23 25 26 23 16 9 11 14 17 20 23 25 27 27 27 28 30 31 33 35 36 37 38 38 38 40 40 37 33 29 27 21 16 24 34 35 36 38 39 40 38 35 33 34 35 32 28 25 23 21 17 12 10 9 9 10 12 15 17 18 19 18 18 18 16
25 25 24 24 23 23 24 24 23 23 24 24 25 25 26 27 27 27 26 23 20 21 22 20 22 25 23 17 10 15 19 20 23 26 26 27 28 28 29 30 31 33 35 34 34 37 38 40 44 43 38 32 29 28 23 15 19 30 36 37 37 39 38 34 33 31 32 36 32 27 26 25 23 20 15 14 12 9 8 8 10 14 16 17 17 18 17 14
25 24 24 23 23 23 24 24 22 23 23 24 25 25 25 26 27 28 31 29 21 18 19 18 19 22 22 19 14 16 24 25 25 27 27 27 29 29 30 31 31 32 34 33 32 36 40 45 45 41 37 32 29 29 26 19 18 25 34 36 35 37 35 32 32 28 27 33 33 29 28 26 25 23 18 17 16 11 8 7 7 10 14 15 15 16 17 17
25 25 24 23 22 22 24 24 22 23 23 24 25 25 25 25 26 28 30 33 27 17 16 19 19 19 19 21 19 20 26 29 27 27 29 29 29 30 30 31 31 31 33 34 34 36 39 44 45 40 36 34 31 30 27 24 20 22 32 34 30 30 30 30 32 28 24 29 33 30 29 28 26 25 23 20 18 14 11 10 10 12 13 12 13 15 17 18
25 25 24 23 22 21 23 23 22 23 23 23 24 24 25 24 25 26 27 33 32 21 17 18 15 15 17 17 20 23 25 29 30 28 31 32 30 30 30 30 31 31 32 34 35 37 36 38 43 41 36 35 33 30 29 27 24 23 30 32 25 22 23 26 29 28 23 24 31 28 24 28 29 26 26 23 20 20 18 15 15 15 14 14 16 17 18 18
25 25 24 23 21 20 21 22 22 23 23 22 23 23 24 23 22 24 25 28 31 25 17 12 11 13 14 12 14 20 22 29 32 29 30 34 33 32 31 30 32 33 32 32 32 36 35 33 40 42 38 36 34 33 32 30 28 26 28 31 25 17 14 15 20 25 22 23 32 28 15 19 30 31 29 26 24 24 22 21 20 17 17 19 20 20 18 17
25 25 24 23 22 20 20 21 21 22 22 21 22 22 21 22 20 20 20 23 28 24 14 10 12 11 11 11 11 13 20 25 29 29 29 32 34 33 32 31 33 33 31 30 30 34 36 33 36 40 39 37 35 35 35 33 31 28 29 30 24 18 15 13 16 22 22 24 31 31 21 16 24 31 31 29 28 27 25 24 23 20 20 22 21 20 20 19
25 25 24 23 22 21 19 19 20 21 20 19 21 20 20 20 17 16 15 14 15 15 11 10 10 8 10 13 10 10 15 17 22 30 30 30 33 34 33 32 33 33 30 28 28 33 36 36 34 35 38 39 38 38 37 36 34 31 30 28 22 20 17 15 17 18 20 24 25 31 33 22 22 32 30 29 31 29 29 29 27 25 24 25 23 21 21 20
25 25 24 22 22 22 19 18 20 20 19 19 20 19 18 17 14 11 7 4 5 10 10 8 7 9 12 11 9 10 15 15 17 26 29 28 31 33 33 33 33 33 31 30 30 30 32 37 38 34 35 38 41 41 38 36 36 33 30 27 24 21 17 16 16 16 21 22 19 26 32 19 23 38 32 27 32 32 32 31 30 29 26 26 26 24 23 22
24 25 25 22 21 22 20 18 20 20 18 18 19 18 16 13 11 8 2 1 5 8 9 10 11 12 12 9 9 9 15 17 14 17 26 30 30 31 32 32 33 32 31 31 32 28 25 32 38 36 34 37 40 39 38 37 36 36 31 27 25 22 19 14 12 17 21 19 17 25 31 19 19 37 36 28 31 33 33 32 29 29 28 27 26 25 25 24
24 24 25 23 20 21 20 19 22 21 18 18 17 17 15 12 11 8 4 4 7 9 11 11 7 4 5 7 8 9 13 18 15 13 23 30 29 29 29 28 30 31 29 29 31 29 24 23 31 39 37 35 36 37 38 37 36 37 33 29 26 21 19 13 13 20 16 11 18 26 33 26 15 27 38 33 30 29 29 30 28 27 28 28 27 25 25 26
23 24 25 24 21 21 19 19 21 21 19 18 17 16 14 13 14 9 4 8 11 11 9 4 2 2 6 10 9 10 11 17 18 13 20 30 29 27 27 26 27 27 26 28 28 29 28 22 25 36 40 34 32 34 36 35 36 37 31 30 25 14 10 8 11 18 8 5 19 26 32 31 18 24 36 33 30 29 29 29 27 24 23 23 22 22 22 23
24 24 24 24 23 21 20 20 20 19 19 20 17 16 15 14 16 15 10 9 8 7 6 5 5 4 3 7 9 10 10 14 21 17 18 28 30 28 28 28 29 27 25 28 27 26 30 31 25 27 35 37 33 32 33 33 35 34 29 29 21 7 4 4 5 8 6 9 19 23 26 27 27 34 37 33 32 30 29 30 27 24 23 21 19 17 18 21
24 24 22 23 24 22 22 22 20 18 20 21 18 17 18 13 12 20 22 16 9 7 8 7 6 6 8 10 8 8 9 10 20 23 18 22 27 28 28 28 30 30 25 25 26 24 24 30 32 28 28 36 38 35 35 35 36 33 30 29 19 6 3 4 2 0 3 12 19 21 19 18 26 34 31 29 28 24 24 27 27 26 25 23 21 18 18 18
24 25 23 22 24 24 24 23 21 19 20 22 20 18 21 16 11 17 23 24 21 18 16 14 15 16 17 16 10 6 7 7 15 25 23 20 23 27 30 29 30 31 28 24 25 26 19 20 33 38 31 34 40 40 37 36 37 37 35 33 28 19 10 5 4 3 5 8 12 15 12 9 17 23 21 20 20 19 22 26 29 30 28 26 24 22 22 20
23 25 24 22 24 25 25 24 22 21 21 23 22 23 27 24 18 19 21 24 26 25 24 25 25 21 17 14 9 5 4 5 11 22 26 25 24 25 30 33 31 30 31 27 23 25 23 23 31 37 36 36 38 39 39 35 35 37 37 35 34 32 24 12 7 10 10 5 5 12 11 12 21 25 22 19 18 19 22 25 30 32 33 32 25 22 23 21
23 24 24 24 25 25 25 24 24 23 22 24 25 30 34 31 25 22 20 20 21 21 22 22 17 11 8 6 5 2 2 2 6 16 24 27 27 26 28 33 34 32 32 31 25 22 22 26 30 30 35 39 36 35 38 38 34 31 33 37 35 33 31 21 11 11 10 4 4 11 11 17 24 24 23 22 20 19 20 25 28 28 32 34 28 23 22 20
23 23 23 24 26 26 25 24 24 24 24 26 31 35 36 32 28 26 22 19 16 14 13 11 8 7 6 5 5 5 3 1 2 8 16 22 26 28 29 30 33 35 33 32 30 27 22 23 28 28 32 39 37 32 33 40 41 34 32 36 31 25 28 25 12 4 4 3 5 12 16 19 19 15 17 21 22 21 20 22 25 27 29 29 27 25 22 21
23 22 23 25 25 25 25 25 25 25 24 29 35 36 33 31 29 28 27 24 19 15 12 11 9 8 9 10 11 11 10 8 5 5 9 13 18 24 28 29 32 34 34 33 32 32 28 23 24 26 27 33 38 36 32 35 40 40 39 36 27 19 21 23 13 3 3 2 2 9 16 19 21 19 17 17 21 23 21 20 22 24 24 21 21 24 23 23
23 22 23 26 24 23 24 24 25 25 27 32 36 35 33 31 28 27 28 28 26 23 21 20 17 15 16 17 18 17 15 13 11 9 8 8 11 16 21 24 28 31 33 36 37 33 29 24 22 22 23 25 34 41 42 39 37 37 37 34 30 25 22 24 22 12 7 4 2 5 8 13 22 24 19 15 18 21 22 22 19 16 15 15 17 22 24 24
24 22 23 25 25 23 22 24 25 26 29 33 35 33 31 29 27 27 28 29 30 29 27 26 24 23 23 22 21 19 15 12 11 9 8 8 10 12 14 15 21 27 30 34 39 38 32 27 23 20 20 25 34 41 48 48 41 37 36 32 30 29 23 21 23 23 15 6 4 4 3 11 19 19 18 18 17 17 19 20 15 10 9 12 16 20 23 21
24 22 22 24 24 22 21 22 24 26 29 32 32 31 30 28 28 27 25 25 27 28 26 26 25 24 24 23 21 18 16 15 13 10 10 11 12 11 10 9 10 17 26 34 39 41 38 32 29 24 22 27 34 40 46 49 46 43 41 37 34 32 26 16 12 21 22 12 7 6 4 11 17 16 16 17 16 16 16 14 11 10 11 14 15 19 21 17
24 22 21 23 24 21 20 21 22 24 28 30 29 28 28 29 30 29 25 22 22 22 22 22 23 22 22 22 21 18 15 15 14 12 12 13 13 11 8 6 5 11 21 32 37 39 40 37 33 32 32 30 28 31 35 40 44 46 45 43 40 37 35 25 13 15 21 16 11 8 6 10 15 16 16 14 14 14 13 12 11 12 15 17 15 19 19 15
24 21 20 23 25 22 20 21 20 23 26 27 27 27 27 27 27 26 25 23 22 23 23 24 23 22 22 21 20 17 15 14 14 13 12 13 16 15 10 7 7 11 18 28 35 38 39 38 34 32 36 38 34 32 30 28 32 39 45 48 46 41 41 38 29 24 22 19 16 8 4 10 15 17 19 17 15 14 12 11 11 13 17 17 15 19 17 15
24 21 19 22 24 22 21 20 19 21 23 24 26 27 27 28 27 26 25 23 21 20 20 22 21 20 21 19 19 18 16 15 14 12 11 13 16 15 12 9 9 13 18 21 31 38 36 36 33 23 18 25 30 30 31 32 31 32 37 43 47 46 43 39 37 34 27 25 26 15 6 13 19 19 22 22 20 20 17 15 13 14 17 17 18 19 16 16
25 21 19 19 21 20 19 20 21 22 22 24 27 27 26 27 27 26 25 23 20 17 18 19 18 18 18 17 18 20 19 19 19 17 16 18 17 14 13 12 11 17 23 20 24 34 37 39 38 25 13 11 16 19 27 36 36 33 32 33 37 43 45 41 37 32 25 25 30 24 14 17 20 19 22 25 25 25 23 20 17 15 15 17 20 19 17 18
25 21 19 16 15 17 19 21 22 23 23 24 25 24 25 26 25 24 24 22 20 18 18 19 17 17 18 18 20 22 22 22 23 24 23 21 19 16 15 13 12 16 23 21 21 32 38 42 42 39 34 30 30 32 34 33 31 32 33 30 29 31 36 41 38 34 31 28 30 31 27 23 22 20 21 24 25 23 21 22 22 20 18 20 23 22 20 20
23 22 21 18 14 14 18 21 22 23 23 23 23 21 21 22 23 23 22 21 19 18 19 19 18 19 19 19 20 23 23 22 24 28 28 24 20 19 17 15 14 14 18 17 18 32 37 39 40 43 44 43 44 44 41 35 28 27 29 31 30 27 28 35 37 38 37 29 25 32 33 27 26 25 23 24 24 20 18 20 23 23 22 22 26 25 23 22
23 21 21 21 18 15 16 18 21 23 22 21 21 20 19 18 18 19 20 20 18 17 19 20 18 18 19 18 20 24 25 23 24 30 31 26 20 19 19 15 12 11 12 14 11 30 35 36 39 43 43 43 44 45 45 43 36 28 25 24 24 25 28 33 36 39 40 34 31 35 33 29 30 29 27 27 24 19 18 19 20 20 19 22 27 28 26 24
24 23 20 21 23 21 18 17 20 22 22 20 19 18 18 18 18 18 19 20 19 17 18 20 18 18 19 20 20 24 27 25 25 29 32 29 21 17 18 14 10 11 8 12 3 21 31 33 33 37 42 43 43 43 45 47 44 40 36 29 23 21 22 27 32 36 40 40 41 41 37 36 36 33 31 28 24 22 21 20 20 19 18 22 27 30 29 27
24 24 22 21 23 22 19 20 21 22 22 20 19 18 18 18 18 18 19 19 19 17 18 20 20 20 21 22 22 24 25 24 23 24 29 32 26 17 16 13 11 11 5 8 7 7 23 32 30 28 34 40 42 43 43 44 44 45 45 42 37 30 26 26 28 33 38 39 40 41 42 42 39 35 33 29 25 24 24 23 23 22 20 21 25 30 29 28
24 24 23 23 24 22 19 19 22 22 21 20 19 19 19 19 19 20 21 20 19 17 17 18 18 20 21 22 21 21 21 23 24 23 28 34 31 22 18 14 13 16 11 7 10 8 8 20 28 27 26 31 36 37 39 43 43 43 46 47 44 41 36 32 29 31 35 37 38 41 43 42 39 37 36 32 29 28 27 26 25 24 23 22 24 28 28 30
24 23 22 23 24 22 19 19 20 21 20 19 18 18 18 19 19 20 21 22 20 19 18 17 18 20 19 18 18 19 22 26 25 23 25 32 35 32 28 22 18 21 19 15 14 13 10 9 17 24 24 29 33 31 33 36 30 30 41 46 44 44 43 39 35 33 32 34 37 42 44 42 40 38 37 34 31 31 30 27 25 24 25 25 25 26 28 31
Wind_Direction
305 298 295 295 296 300 303 304 306 308 310 314 316 315 314 313 316 316 305 292 287 285 282 279 275 273 270 268 266 262 257 253 251 247 243 234 229 231 225 225 229 232 233 234 234 235 235 233 229 232 225 203 195 190 184 182 182 190 189 181 193 208 212 210 215 198 182 172 155 160 168 186 339 95 155 121 129 159 138 141 151 150 155 160 180 186 175 174
315 307 299 296 296 298 301 303 304 305 307 310 314 317 316 315 316 317 312 300 291 287 285 283 280 277 273 271 269 265 260 255 251 248 245 236 232 230 222 221 224 227 228 230 231 231 233 233 233 235 235 217 204 201 195 194 197 200 198 195 204 215 223 225 227 210 206 214 156 161 177 191 335 21 141 132 137 170 148 145 154 152 154 156 170 180 175 174
318 315 308 301 297 297 299 301 303 304 305 307 310 314 316 316 315 317 316 307 297 291 288 286 284 282 278 274 271 269 263 256 251 250 247 238 231 228 222 219 220 223 224 226 228 228 229 228 229 233 237 227 209 206 204 204 213 214 209 210 210 216 223 225 229 229 230 233 187 178 185 192 270 2 77 149 152 169 155 144 152 152 147 145 158 170 168 168
315 317 315 309 302 297 297 299 301 303 304 305 307 310 313 316 316 316 315 311 303 294 290 288 288 287 285 279 274 271 266 260 255 250 245 235 224 222 218 215 215 217 220 222 224 225 227 225 225 229 233 226 209 207 210 213 222 225 222 217 211 221 227 228 232 230 228 230 220 199 189 194 215 4 34 137 171 172 163 147 143 147 141 134 147 160 161 163
313 314 315 314 310 303 299 297 298 300 301 303 304 307 310 313 315 315 313 312 306 297 292 289 290 290 289 285 278 273 271 269 260 248 242 232 221 217 213 209 208 210 215 218 220 221 223 224 222 224 227 221 210 210 214 217 226 230 233 233 227 236 236 233 233 224 222 223 221 218 194 189 192 132 77 72 145 173 168 152 137 136 133 119 131 151 160 163
311 312 312 313 313 311 306 300 298 297 299 300 302 304 306 309 312 312 311 310 307 301 293 289 290 291 292 288 281 275 270 264 253 244 237 228 217 211 210 206 203 204 210 213 216 219 220 222 220 219 224 220 213 216 218 220 229 236 237 242 246 251 246 236 230 222 217 215 217 220 196 188 182 135 115 92 117 160 168 158 143 133 134 135 133 139 147 155
309 309 310 311 311 312 311 308 304 300 299 299 300 302 304 307 308 309 309 308 307 304 298 291 289 291 293 290 285 275 265 250 239 240 225 217 212 205 205 202 199 201 205 209 212 216 217 221 221 219 222 221 216 217 219 222 229 237 237 247 258 255 245 234 226 219 216 216 220 212 199 193 182 154 160 146 139 164 180 170 158 145 144 152 149 142 138 142
306 306 307 308 308 310 311 311 309 307 304 301 301 302 303 305 306 307 306 305 306 305 303 294 289 290 291 292 288 276 266 250 236 235 219 211 208 200 201 198 196 198 203 206 209 213 217 220 221 221 222 222 220 217 216 220 225 234 243 257 263 247 230 226 222 217 214 216 220 215 210 196 176 198 201 177 163 171 208 192 178 166 160 155 155 161 158 151
302 303 304 305 305 307 308 309 310 310 310 308 306 305 305 306 306 306 303 302 303 304 305 299 292 289 288 292 289 280 269 252 236 231 218 209 204 198 198 195 194 196 200 204 208 212 216 219 222 222 224 223 223 221 216 221 228 238 253 261 254 237 220 216 217 215 210 212 217 214 214 206 196 199 199 201 195 187 208 211 198 182 174 165 166 173 175 171
298 299 300 301 302 303 305 306 308 309 310 310 310 310 310 310 309 307 303 301 301 302 303 301 296 289 287 289 286 284 271 253 237 225 214 207 202 197 195 194 193 195 199 203 207 211 215 219 221 222 225 225 225 223 218 227 236 242 256 255 234 226 216 211 214 213 209 213 219 216 214 209 207 209 199 196 202 196 202 214 205 193 184 174 171 178 181 182
295 296 297 298 299 300 301 303 305 307 309 309 309 309 310 313 315 312 307 303 300 300 300 300 298 292 289 286 286 290 273 249 234 220 208 204 203 196 194 192 191 193 198 203 206 210 215 218 221 221 221 224 226 223 223 233 237 243 253 234 211 214 210 208 211 211 210 213 217 218 219 215 215 214 204 215 228 211 209 213 209 199 192 185 180 184 184 181
293 294 294 295 295 296 297 299 301 304 306 306 306 305 306 311 314 314 312 308 305 300 298 299 299 296 291 287 291 292 267 246 233 220 205 204 203 196 194 191 190 192 196 200 206 210 215 219 220 220 219 224 225 219 225 235 238 246 243 210 201 208 204 204 209 211 211 213 213 213 216 222 223 211 198 215 233 233 219 211 211 207 199 194 188 189 189 182
294 294 293 293 293 293 294 295 298 300 302 303 303 302 303 306 309 312 313 313 312 305 300 299 299 301 295 290 299 280 257 243 230 223 210 205 203 196 194 193 191 192 195 198 202 206 211 216 218 218 218 221 220 217 229 239 242 241 218 198 196 197 199 201 206 209 211 216 217 209 210 221 223 208 205 215 225 232 226 209 204 204 202 200 194 192 194 187
295 295 294 294 293 292 292 293 295 297 298 298 299 299 300 303 305 308 311 313 315 312 307 302 299 302 297 292 299 269 253 240 223 222 219 206 201 197 194 194 193 193 197 199 201 202 204 209 212 213 216 218 212 212 228 240 236 214 191 192 196 191 195 201 204 207 209 214 218 211 215 233 235 211 211 217 222 230 228 212 201 198 201 203 198 194 196 192
293 294 294 294 293 293 292 292 294 295 295 295 295 295 296 300 301 304 310 313 315 315 315 310 303 301 298 296 287 265 249 234 216 214 215 203 199 199 195 197 197 195 198 202 204 203 203 206 209 211 214 216 207 202 223 230 211 193 181 186 196 193 194 200 204 209 209 210 213 211 217 237 243 219 212 216 221 225 225 215 203 197 200 204 202 199 197 195
289 290 292 293 293 293 293 293 293 295 294 293 292 292 293 295 297 301 307 311 314 315 316 314 309 302 298 296 279 264 249 233 220 213 209 199 196 197 197 199 200 198 199 203 206 205 207 208 209 211 212 211 205 204 215 203 189 188 184 186 195 197 194 198 204 210 212 211 210 208 213 232 239 219 213 217 217 218 217 213 206 200 200 203 206 206 202 197
285 286 287 289 291 292 293 293 294 295 294 292 290 289 290 292 294 298 303 308 312 313 313 312 311 304 299 298 274 257 248 237 226 219 211 199 194 194 196 200 202 202 201 203 205 206 208 209 210 210 210 207 201 202 195 183 182 185 187 190 196 199 197 198 202 206 211 214 215 213 213 225 239 225 218 218 215 213 213 208 205 202 201 203 207 213 211 206
283 284 284 285 287 288 290 291 293 294 293 291 290 288 288 289 291 293 297 304 307 309 310 310 312 307 299 299 273 248 242 238 226 218 211 202 197 197 198 199 203 205 204 204 205 206 208 209 211 211 210 205 198 198 195 188 185 184 188 194 197 200 201 201 201 201 205 212 218 219 220 227 238 240 222 215 215 214 213 209 205 204 203 204 208 214 216 215
283 283 283 283 284 285 286 288 291 292 292 292 290 289 289 290 291 291 293 298 302 305 307 310 311 304 293 288 274 241 236 235 223 211 207 205 201 201 201 200 203 207 207 207 204 205 208 207 209 210 208 204 199 201 205 202 193 189 193 199 199 201 204 205 203 200 201 208 214 219 226 233 240 245 232 221 220 212 208 208 206 205 205 206 210 215 219 219
283 282 282 282 282 283 284 285 288 289 290 289 289 290 291 292 293 291 290 293 298 301 304 308 307 301 296 288 257 227 231 231 219 206 203 205 204 204 205 203 205 207 209 209 206 204 207 209 210 211 210 206 203 205 209 210 202 198 199 202 204 205 206 207 205 203 205 209 215 220 226 235 242 249 247 233 225 220 216 211 208 204 203 205 208 213 217 217
283 282 282 281 281 282 282 283 285 287 288 288 288 290 291 293 294 293 293 290 290 295 298 303 300 296 298 294 261 229 231 229 219 207 201 204 205 206 206 205 206 208 208 209 208 206 207 212 214 213 213 210 206 208 207 205 203 203 204 205 207 209 209 208 207 207 210 214 219 223 227 233 239 244 245 236 236 251 257 242 222 207 203 203 204 209 211 208
284 282 282 280 280 280 280 282 283 284 285 287 288 290 292 293 294 296 298 295 291 290 295 302 301 295 289 283 269 238 229 226 219 208 202 205 206 205 207 207 207 209 208 206 206 207 209 214 215 213 214 211 208 210 211 208 200 202 207 208 211 214 214 213 214 214 216 218 221 226 229 233 236 237 238 240 248 267 281 267 241 217 210 204 200 202 204 203
284 283 282 280 279 278 279 280 281 282 282 284 287 290 292 292 295 297 299 300 300 300 309 313 308 295 279 269 259 243 231 227 220 208 204 207 207 206 208 209 208 208 209 207 205 206 211 214 214 212 212 209 207 209 210 210 203 200 204 207 214 221 222 223 222 222 224 222 222 226 232 235 236 236 234 237 246 247 249 247 230 219 214 208 207 205 205 209
286 284 282 281 279 277 278 278 279 281 280 282 284 287 291 292 295 295 297 300 300 308 323 322 314 296 285 276 259 247 236 229 223 210 205 209 208 208 211 211 209 208 210 210 208 209 213 214 212 211 211 208 207 208 207 207 204 202 204 207 214 220 224 231 229 227 229 226 225 227 234 238 237 239 238 235 238 236 235 233 223 215 207 205 212 211 209 213
288 286 283 281 280 277 276 277 278 278 278 281 282 284 288 291 293 292 297 300 299 309 325 323 322 312 303 301 275 254 238 231 226 214 208 212 211 211 214 214 211 211 211 209 209 213 215 213 212 212 210 208 207 208 210 209 209 208 208 212 216 218 222 228 227 223 218 221 227 224 228 243 239 241 244 239 237 237 234 232 226 216 207 205 206 206 207 207
289 288 286 283 280 276 274 276 278 277 277 279 280 282 286 289 291 290 296 300 300 311 328 327 325 319 314 323 306 261 237 235 230 217 211 214 215 215 216 217 215 213 212 210 212 218 215 209 212 214 211 209 208 209 213 213 214 215 214 215 219 224 226 225 220 213 208 220 232 227 224 241 242 243 246 241 239 241 239 238 233 221 214 213 207 200 203 204
289 289 287 285 282 276 271 272 276 276 276 276 276 279 283 286 288 291 300 307 306 314 328 329 327 325 325 325 311 260 238 242 229 217 212 213 216 217 217 218 217 214 212 211 216 221 216 207 208 213 211 211 210 211 213 215 217 220 218 218 223 228 230 233 228 220 223 230 233 228 227 236 249 248 248 243 240 241 241 242 241 231 223 223 217 204 201 203
289 288 287 286 284 279 271 267 271 274 274 271 271 274 278 281 279 283 304 326 309 317 324 322 317 319 324 324 313 272 246 247 233 217 213 212 214 216 218 219 218 218 214 213 217 220 217 209 207 209 209 211 213 214 215 217 221 222 222 224 229 234 239 242 239 235 235 229 217 220 223 228 250 248 248 246 240 241 244 245 247 243 235 231 227 216 208 205
287 287 286 284 283 280 274 268 269 271 270 267 267 269 271 271 262 252 235 236 284 305 315 309 301 302 309 313 316 293 250 240 237 222 209 208 213 217 220 220 219 220 219 219 221 219 219 215 210 211 213 213 215 217 218 219 222 224 226 230 233 240 246 250 254 239 228 219 214 223 222 218 246 247 243 240 238 243 249 251 253 252 247 243 238 228 219 214
284 285 284 282 281 278 273 270 269 268 265 263 262 261 261 253 235 215 182 230 275 298 302 303 297 301 347 333 316 298 256 229 221 224 209 206 213 218 221 223 220 221 223 226 227 223 220 217 213 216 218 217 216 218 220 221 224 227 229 232 234 243 247 248 241 227 216 215 230 238 232 224 239 251 245 243 247 254 257 256 256 256 252 247 243 237 227 222
282 283 283 282 279 275 271 268 268 265 262 261 256 252 250 234 217 198 187 251 272 288 286 283 184 135 33 5 338 314 273 221 205 216 212 205 208 214 218 220 215 217 224 229 231 228 221 214 212 217 220 219 215 217 220 222 225 228 231 231 232 237 236 225 210 210 201 225 240 246 237 223 223 249 253 259 266 268 266 263 260 259 259 252 243 239 233 229
279 279 282 281 278 275 270 263 262 261 259 256 251 243 232 219 216 209 210 246 272 272 243 206 196 205 10 360 350 335 294 224 202 204 210 205 205 212 218 218 210 208 219 225 227 231 227 220 213 213 219 221 217 215 217 219 223 226 226 225 224 208 189 194 179 198 204 224 239 244 232 220 229 248 259 266 269 270 268 265 261 259 265 264 252 245 241 235
277 276 277 278 277 273 267 264 258 254 255 252 246 233 218 213 224 220 221 232 243 246 236 224 226 246 291 305 321 334 310 249 210 202 204 207 212 217 220 221 215 210 215 221 223 227 230 227 219 214 216 219 219 217 214 215 219 221 220 218 213 178 152 217 223 359 226 231 241 240 228 223 235 250 262 264 266 270 265 264 264 262 266 271 265 257 254 247
275 274 273 273 273 269 264 263 258 248 248 248 240 224 213 215 227 225 229 238 243 252 254 257 270 277 282 284 292 313 310 280 225 212 211 217 222 222 221 220 218 217 220 223 225 224 224 228 221 216 214 214 217 221 219 219 222 225 227 228 224 216 207 210 201 180 202 227 231 216 206 213 233 252 266 262 264 265 260 264 266 262 262 267 268 259 254 251
272 272 272 269 267 266 262 260 257 247 241 242 236 221 216 218 222 228 239 246 251 259 261 266 277 284 280 270 272 292 290 281 241 225 224 228 231 228 223 219 216 217 222 223 226 225 226 235 227 218 218 215 214 220 222 222 225 229 231 230 229 227 227 230 227 220 215 212 188 186 196 231 246 259 262 256 262 259 257 261 261 259 258 260 262 252 247 246
271 269 271 269 264 263 260 257 255 248 241 239 233 224 224 227 231 236 244 251 255 259 263 268 272 277 281 251 208 195 243 262 235 231 233 236 240 238 230 224 219 216 219 222 225 222 226 238 236 226 222 219 215 218 221 221 224 227 227 228 230 233 234 235 236 235 227 232 216 199 215 243 251 262 259 252 257 249 244 250 251 255 256 257 258 246 239 238
271 266 266 267 264 262 260 254 251 247 241 237 235 233 235 238 240 243 244 247 252 249 253 263 251 244 275 268 220 220 255 318 185 226 236 236 241 243 236 231 227 223 222 223 226 228 231 241 242 234 227 223 218 217 220 223 226 227 228 231 231 231 235 233 228 224 211 234 233 210 222 234 236 253 261 255 251 237 231 239 244 249 253 256 254 243 232 226
273 266 263 262 261 260 259 254 249 245 239 236 238 240 244 244 243 246 245 244 245 241 244 258 256 256 276 281 271 264 273 291 288 275 260 238 238 244 241 237 234 232 231 229 228 230 232 241 245 239 234 227 220 218 220 220 223 228 233 236 230 217 219 220 215 193 184 229 255 213 221 227 226 240 260 259 246 235 231 232 237 245 246 244 239 233 224 215
277 270 266 262 260 258 255 253 249 244 238 235 237 240 244 246 245 247 248 246 245 244 248 256 260 264 270 274 275 275 283 291 286 291 287 244 233 241 242 242 240 238 236 232 230 229 228 234 241 238 236 230 220 220 221 216 216 223 229 232 231 226 221 217 217 215 199 204 235 220 224 225 229 240 252 253 241 237 237 233 234 244 246 243 236 224 213 207
279 274 269 266 264 259 252 248 246 242 238 238 239 241 244 248 249 248 248 248 248 247 250 255 259 265 269 272 275 277 284 289 283 291 289 251 242 246 243 248 251 247 242 236 233 232 227 226 231 231 227 223 217 217 220 217 213 216 220 220 220 222 222 222 225 220 210 197 178 186 230 226 227 236 244 248 244 238 236 230 233 252 262 263 247 219 205 202
280 275 272 269 267 264 256 248 245 242 241 242 243 243 244 247 248 248 248 247 248 249 251 253 256 259 262 265 268 270 276 280 277 279 272 253 254 257 241 239 259 259 248 237 232 231 227 223 225 226 224 222 219 220 221 221 219 218 220 220 219 219 218 217 226 219 216 218 201 191 219 221 225 236 243 246 240 232 233 229 232 241 249 262 245 209 198 200
280 277 274 268 265 265 259 252 247 242 240 241 242 242 242 243 244 246 246 243 241 241 244 248 249 250 253 257 261 265 268 271 267 257 252 252 254 250 226 222 277 287 262 246 238 235 231 228 229 230 232 231 225 221 221 223 225 226 226 227 227 226 222 218 219 214 214 221 220 217 231 221 224 236 243 243 231 225 229 231 232 227 235 255 238 199 192 198
279 274 272 269 265 263 259 253 247 243 242 241 240 238 236 239 241 242 242 242 242 244 246 248 249 250 254 258 261 262 257 257 258 245 243 258 257 245 231 238 275 298 283 260 247 239 229 225 226 229 234 237 236 233 228 222 223 225 228 230 230 229 228 227 231 231 224 221 218 213 230 227 224 229 238 240 228 219 225 233 233 224 228 239 220 194 192 197
279 271 268 268 266 263 258 252 245 242 241 239 237 234 233 237 239 239 242 245 246 246 245 244 244 246 250 254 257 255 248 248 248 230 223 241 243 237 238 248 267 289 292 270 247 238 226 218 219 219 227 238 240 243 240 233 229 227 227 228 229 230 232 232 233 234 231 227 224 215 211 229 228 228 235 237 227 225 238 246 239 229 229 225 207 196 198 199
283 275 268 266 266 261 254 248 241 237 238 237 236 235 233 236 238 239 243 244 237 231 234 237 234 232 236 239 245 248 246 246 245 236 231 231 231 236 245 252 273 289 295 283 248 237 231 222 219 213 200 217 230 233 234 232 233 234 232 231 229 228 228 230 227 223 223 227 222 216 219 233 236 237 236 233 230 233 244 249 240 229 226 217 207 205 207 205
289 281 269 261 261 256 249 245 241 239 240 241 241 241 239 239 238 237 239 243 239 229 235 241 232 225 229 232 239 244 242 242 242 243 243 235 232 244 246 249 275 297 304 291 244 231 234 229 224 222 220 223 230 232 232 231 232 235 236 235 231 226 227 230 227 220 222 224 219 223 233 238 241 243 237 231 233 238 247 254 248 239 234 223 212 212 215 211
289 285 274 266 257 245 240 240 240 240 243 247 247 246 244 244 243 240 239 244 244 235 237 244 238 232 232 232 241 248 246 245 239 238 242 238 237 246 243 249 272 296 321 310 236 221 229 229 228 230 229 231 234 235 236 236 237 237 236 235 233 228 227 228 226 225 226 222 220 231 237 237 242 248 245 240 240 241 247 252 248 243 240 229 216 215 218 212
283 281 277 272 263 247 234 234 236 236 238 245 249 246 245 245 245 244 243 242 241 237 239 242 238 235 237 241 253 259 258 256 244 234 236 237 241 248 242 242 254 266 324 341 237 217 223 228 231 233 233 235 236 236 238 240 241 242 239 236 234 233 231 230 230 232 231 229 234 241 239 239 246 252 252 248 245 247 251 247 239 235 231 223 216 217 220 214
280 277 274 268 265 259 248 241 242 238 234 240 250 250 246 245 243 243 246 245 244 239 238 241 234 227 231 235 247 257 256 254 247 236 230 229 235 250 247 243 246 250 310 3 289 219 222 228 234 234 235 237 236 236 239 241 243 244 245 244 242 242 242 241 241 241 240 241 246 248 247 247 251 253 253 252 248 249 252 245 235 232 228 222 219 220 222 221
278 277 274 267 263 263 259 253 253 251 243 242 252 253 245 244 244 244 244 247 248 242 240 245 240 231 231 232 241 254 254 246 245 243 234 227 227 242 251 256 272 274 298 18 10 239 224 228 234 237 238 238 238 237 238 241 243 245 247 248 248 248 249 249 248 245 242 243 247 248 247 250 252 251 249 249 244 243 249 246 238 235 234 230 224 222 226 230
275 276 276 271 265 261 259 256 256 259 256 250 252 252 246 244 246 246 244 244 248 248 247 250 247 237 232 232 242 251 243 233 236 244 242 231 225 236 249 258 288 296 292 322 345 334 254 236 236 238 241 242 240 238 239 242 244 244 245 247 247 247 249 251 251 247 243 242 242 242 243 247 251 248 245 244 240 240 248 247 241 240 241 238 229 227 232 236
274 274 274 274 271 264 260 256 254 258 259 254 253 250 244 241 241 246 249 246 245 250 251 251 248 241 232 229 236 236 227 225 230 244 251 235 223 231 244 253 281 296 290 297 314 317 316 289 251 241 242 244 243 241 240 241 240 239 242 245 247 248 249 252 254 254 253 249 245 243 245 249 250 245 241 241 240 243 247 244 243 247 247 242 237 236 239 238
Height
3162 3161 3161 3160 3159 3159 3158 3157 3157 3156 3155 3154 3153 3152 3151 3150 3149 3149 3148 3148 3147 3147 3147 3146 3146 3146 3146 3146 3146 3146 3147 3147 3148 3149 3150 3153 3154 3153 3155 3157 3158 3160 3162 3164 3166 3168 3170 3170 3171 3171 3172 3172 3173 3174 3174 3175 3174 3174 3174 3174 3175 3174 3174 3174 3174 3175 3176 3177 3177 3178 3178 3179 3179 3179 3179 3179 3179 3180 3179 3178 3179 3180 3181 3181 3183 3184 3184 3185
3161 3160 3159 3158 3158 3157 3156 3156 3155 3154 3154 3153 3152 3151 3150 3149 3148 3147 3147 3146 3146 3146 3145 3144 3144 3144 3143 3143 3143 3143 3144 3144 3145 3146 3148 3150 3151 3151 3153 3155 3156 3158 3160 3163 3165 3167 3168 3170 3170 3170 3171 3172 3173 3173 3174 3174 3174 3174 3174 3175 3175 3175 3174 3174 3175 3176 3177 3178 3178 3179 3179 3179 3180 3180 3179 3179 3179 3180 3179 3179 3179 3180 3180 3181 3182 3184 3184 3185
3159 3159 3158 3157 3156 3156 3155 3154 3154 3153 3152 3151 3151 3150 3149 3148 3147 3146 3145 3144 3144 3144 3143 3143 3142 3142 3141 3141 3141 3140 3141 3141 3142 3144 3145 3147 3148 3150 3151 3153 3154 3157 3159 3162 3164 3166 3167 3168 3169 3169 3170 3171 3171 3172 3173 3173 3174 3174 3174 3174 3175 3176 3176 3176 3176 3177 3177 3179 3179 3179 3179 3180 3180 3180 3180 3180 3180 3180 3180 3180 3180 3180 3180 3181 3182 3184 3185 3185
3158 3157 3156 3156 3155 3154 3154 3153 3152 3151 3151 3150 3149 3148 3148 3147 3146 3145 3144 3143 3142 3142 3142 3141 3140 3140 3139 3139 3139 3138 3138 3138 3140 3141 3142 3144 3145 3146 3148 3150 3152 3155 3158 3160 3162 3164 3165 3166 3167 3168 3169 3169 3170 3171 3172 3172 3173 3173 3174 3174 3175 3176 3176 3176 3176 3178 3179 3179 3180 3180 3179 3180 3181 3181 3180 3180 3180 3180 3180 3180 3180 3181 3181 3181 3182 3184 3185 3185
3157 3156 3155 3154 3153 3153 3152 3151 3151 3150 3149 3148 3148 3147 3146 3145 3144 3143 3142 3141 3141 3140 3140 3139 3139 3138 3138 3137 3137 3136 3136 3137 3137 3138 3139 3141 3142 3143 3145 3147 3149 3152 3155 3158 3160 3161 3163 3164 3166 3167 3167 3168 3169 3170 3170 3172 3173 3173 3173 3174 3175 3176 3176 3176 3177 3178 3179 3179 3180 3179 3179 3180 3181 3181 3181 3181 3181 3181 3181 3181 3181 3181 3182 3183 3184 3185 3185 3186
3155 3155 3154 3153 3152 3151 3150 3150 3149 3148 3148 3147 3146 3145 3144 3144 3143 3142 3141 3140 3139 3138 3138 3138 3137 3136 3136 3135 3135 3134 3134 3135 3135 3136 3137 3138 3140 3141 3143 3144 3147 3150 3152 3155 3158 3159 3161 3163 3164 3166 3167 3168 3169 3169 3170 3172 3172 3172 3172 3174 3175 3175 3176 3176 3176 3177 3178 3179 3179 3179 3180 3180 3181 3181 3181 3181 3181 3182 3182 3181 3181 3181 3183 3184 3185 3186 3187 3187
3154 3153 3152 3151 3150 3149 3149 3148 3147 3147 3146 3145 3144 3144 3143 3142 3141 3140 3139 3138 3137 3136 3136 3136 3135 3135 3134 3133 3133 3132 3132 3133 3134 3133 3134 3135 3137 3139 3140 3142 3145 3147 3150 3153 3155 3158 3160 3162 3163 3165 3166 3167 3168 3169 3170 3171 3171 3171 3171 3173 3174 3175 3175 3175 3176 3177 3177 3178 3179 3179 3180 3180 3181 3181 3181 3181 3181 3182 3182 3182 3182 3182 3183 3184 3185 3186 3187 3188
3152 3152 3151 3150 3149 3148 3147 3146 3145 3145 3144 3143 3143 3142 3141 3140 3139 3139 3138 3136 3135 3135 3134 3134 3133 3133 3132 3131 3131 3130 3130 3131 3131 3131 3132 3133 3134 3136 3138 3141 3143 3146 3149 3152 3154 3157 3159 3160 3162 3164 3165 3166 3167 3169 3170 3170 3170 3170 3170 3172 3173 3173 3173 3174 3175 3176 3177 3178 3179 3179 3179 3180 3181 3181 3181 3181 3181 3182 3182 3182 3182 3183 3183 3184 3185 3186 3187 3188
3150 3150 3149 3148 3148 3147 3146 3145 3144 3143 3142 3141 3141 3140 3139 3138 3138 3137 3136 3135 3134 3133 3132 3132 3131 3131 3130 3129 3128 3128 3129 3129 3129 3130 3131 3131 3132 3134 3136 3139 3142 3144 3148 3151 3153 3155 3157 3159 3162 3163 3164 3166 3167 3168 3169 3169 3169 3169 3170 3170 3171 3171 3172 3173 3174 3175 3176 3178 3178 3178 3179 3180 3181 3181 3181 3181 3181 3181 3182 3182 3183 3183 3183 3184 3185 3185 3187 3188
3149 3148 3147 3146 3146 3145 3144 3143 3142 3142 3141 3140 3139 3138 3137 3136 3136 3135 3134 3133 3132 3131 3130 3130 3129 3129 3128 3128 3126 3127 3127 3126 3127 3128 3129 3130 3131 3132 3135 3138 3140 3143 3146 3149 3151 3153 3156 3159 3161 3162 3163 3165 3165 3167 3168 3168 3167 3168 3168 3169 3169 3170 3171 3172 3173 3175 3176 3177 3178 3178 3178 3180 3180 3180 3180 3180 3181 3181 3181 3182 3183 3183 3183 3184 3185 3185 3186 3188
3147 3146 3145 3145 3144 3143 3142 3141 3141 3140 3139 3138 3137 3136 3135 3135 3134 3133 3132 3131 3130 3129 3128 3128 3127 3127 3126 3125 3125 3126 3125 3124 3125 3126 3127 3128 3129 3131 3133 3136 3139 3142 3145 3148 3150 3152 3155 3158 3159 3161 3162 3163 3164 3165 3166 3166 3166 3166 3167 3167 3167 3169 3170 3172 3173 3174 3175 3176 3177 3178 3179 3180 3180 3179 3179 3180 3180 3181 3181 3181 3182 3183 3183 3184 3185 3185 3186 3187
3145 3145 3144 3143 3142 3141 3140 3139 3139 3138 3137 3136 3136 3134 3133 3133 3132 3131 3130 3129 3129 3128 3126 3126 3125 3124 3124 3123 3124 3123 3122 3122 3124 3125 3126 3127 3128 3130 3132 3134 3136 3139 3142 3145 3148 3151 3154 3155 3157 3159 3160 3161 3162 3164 3165 3164 3165 3165 3166 3166 3167 3169 3170 3171 3173 3174 3175 3175 3176 3178 3179 3179 3178 3178 3178 3179 3179 3180 3180 3181 3182 3183 3183 3183 3184 3185 3186 3187
3143 3143 3142 3141 3140 3139 3138 3138 3137 3136 3136 3134 3133 3132 3131 3131 3130 3129 3128 3128 3127 3126 3125 3124 3123 3122 3122 3121 3122 3121 3120 3121 3123 3125 3125 3126 3127 3129 3131 3133 3134 3137 3140 3142 3145 3148 3151 3153 3155 3157 3158 3159 3161 3162 3162 3162 3163 3164 3165 3166 3167 3169 3170 3171 3172 3173 3175 3175 3176 3177 3178 3176 3176 3177 3177 3178 3178 3179 3179 3180 3181 3182 3182 3183 3184 3185 3186 3187
3141 3140 3140 3139 3138 3137 3137 3136 3135 3135 3134 3132 3131 3130 3129 3129 3128 3127 3126 3126 3125 3124 3123 3122 3121 3120 3119 3119 3120 3119 3118 3120 3121 3123 3123 3124 3126 3128 3130 3132 3133 3136 3138 3141 3142 3145 3147 3149 3152 3154 3156 3158 3159 3160 3161 3161 3161 3162 3163 3166 3167 3167 3168 3170 3171 3172 3174 3174 3176 3177 3176 3175 3175 3176 3176 3177 3177 3178 3178 3179 3180 3181 3182 3182 3183 3184 3185 3186
3138 3138 3137 3137 3136 3135 3134 3134 3133 3133 3132 3130 3129 3128 3127 3127 3126 3125 3124 3123 3123 3122 3121 3120 3119 3118 3116 3116 3117 3116 3116 3118 3118 3119 3120 3122 3124 3126 3129 3130 3132 3135 3138 3140 3141 3143 3145 3146 3149 3152 3154 3156 3158 3159 3159 3159 3160 3161 3162 3164 3166 3166 3167 3169 3170 3171 3172 3173 3175 3176 3175 3175 3175 3175 3175 3176 3177 3177 3178 3178 3179 3180 3181 3182 3183 3184 3185 3186
3136 3135 3135 3134 3133 3133 3132 3132 3131 3131 3130 3128 3127 3126 3124 3124 3123 3123 3122 3121 3121 3120 3119 3118 3117 3116 3114 3114 3114 3114 3115 3116 3116 3117 3117 3118 3121 3123 3126 3128 3131 3133 3136 3138 3140 3142 3143 3145 3148 3150 3152 3154 3156 3157 3157 3158 3159 3160 3160 3161 3164 3166 3167 3168 3169 3171 3172 3173 3173 3174 3174 3174 3174 3175 3175 3176 3176 3177 3177 3178 3178 3179 3180 3181 3182 3183 3184 3185
3133 3133 3132 3132 3131 3130 3129 3129 3129 3129 3128 3126 3125 3123 3122 3122 3121 3120 3120 3119 3118 3118 3117 3116 3115 3114 3112 3112 3112 3112 3113 3114 3115 3115 3116 3117 3118 3120 3122 3125 3128 3131 3133 3135 3137 3139 3141 3144 3146 3148 3150 3152 3154 3155 3156 3156 3156 3158 3159 3160 3163 3164 3165 3166 3168 3170 3171 3172 3172 3172 3172 3173 3174 3174 3174 3175 3176 3176 3176 3177 3178 3178 3179 3180 3181 3182 3183 3184
3131 3130 3130 3129 3129 3128 3127 3126 3126 3126 3125 3123 3122 3121 3120 3119 3119 3118 3117 3116 3116 3115 3114 3114 3113 3112 3111 3111 3111 3111 3111 3112 3113 3114 3115 3117 3117 3119 3120 3122 3125 3128 3130 3132 3134 3136 3139 3141 3144 3146 3147 3149 3151 3152 3152 3153 3153 3154 3156 3158 3161 3163 3164 3164 3164 3166 3167 3169 3171 3171 3171 3172 3173 3174 3174 3175 3175 3175 3176 3177 3177 3178 3178 3179 3180 3181 3182 3183
3128 3128 3127 3127 3126 3126 3124 3124 3124 3123 3123 3121 3119 3118 3117 3117 3116 3116 3115 3114 3113 3113 3112 3111 3111 3110 3109 3110 3110 3110 3109 3110 3111 3112 3114 3115 3116 3117 3119 3120 3122 3124 3126 3128 3130 3133 3135 3138 3139 3140 3142 3145 3148 3150 3152 3153 3154 3154 3155 3157 3158 3160 3161 3161 3162 3164 3165 3167 3168 3169 3169 3171 3172 3173 3173 3174 3174 3175 3175 3176 3176 3177 3177 3177 3178 3179 3180 3181
3125 3125 3124 3124 3124 3123 3122 3121 3122 3121 3120 3119 3117 3115 3114 3114 3113 3112 3112 3112 3111 3110 3110 3109 3108 3106 3106 3107 3109 3108 3107 3107 3109 3110 3111 3113 3114 3115 3117 3118 3119 3121 3123 3126 3128 3131 3133 3134 3133 3135 3139 3143 3147 3150 3153 3155 3155 3155 3156 3157 3158 3159 3159 3162 3164 3166 3166 3167 3167 3168 3169 3170 3171 3173 3173 3173 3174 3174 3174 3174 3175 3175 3175 3176 3177 3178 3179 3180
3122 3122 3121 3121 3121 3121 3119 3119 3119 3119 3117 3116 3115 3114 3113 3111 3110 3108 3107 3108 3109 3108 3107 3107 3105 3103 3103 3104 3106 3106 3105 3105 3105 3107 3109 3110 3112 3113 3114 3116 3117 3118 3121 3125 3127 3129 3130 3129 3129 3135 3140 3145 3148 3150 3152 3153 3154 3155 3156 3157 3158 3159 3160 3163 3165 3166 3168 3167 3167 3168 3169 3170 3171 3172 3174 3173 3173 3173 3173 3173 3174 3174 3174 3175 3176 3177 3178 3180
3119 3119 3118 3118 3118 3118 3117 3117 3117 3116 3115 3114 3112 3112 3111 3110 3108 3105 3102 3101 3105 3106 3105 3104 3103 3101 3101 3101 3102 3101 3101 3101 3103 3105 3107 3108 3109 3111 3113 3113 3114 3117 3120 3123 3124 3126 3125 3124 3129 3136 3141 3144 3147 3148 3150 3152 3153 3154 3155 3157 3158 3158 3161 3164 3165 3167 3168 3168 3168 3169 3168 3169 3170 3171 3173 3172 3172 3173 3173 3173 3174 3174 3174 3174 3175 3176 3177 3178
3116 3116 3115 3115 3115 3115 3114 3114 3114 3114 3113 3112 3111 3110 3109 3108 3106 3104 3101 3096 3097 3101 3102 3100 3099 3098 3097 3097 3097 3097 3097 3098 3101 3103 3105 3105 3107 3109 3110 3111 3113 3115 3118 3119 3120 3122 3121 3122 3130 3136 3139 3142 3144 3146 3148 3150 3151 3153 3154 3156 3157 3159 3161 3163 3164 3166 3168 3168 3168 3168 3168 3168 3169 3170 3170 3171 3172 3172 3173 3173 3173 3173 3173 3174 3175 3176 3177 3177
3113 3112 3112 3112 3112 3113 3112 3111 3112 3111 3110 3110 3109 3108 3107 3107 3105 3103 3100 3095 3092 3095 3098 3096 3095 3094 3094 3093 3093 3093 3094 3096 3098 3101 3103 3103 3105 3107 3108 3110 3112 3113 3115 3117 3119 3120 3120 3123 3130 3134 3136 3139 3141 3143 3145 3147 3149 3151 3153 3154 3156 3158 3160 3160 3163 3165 3167 3168 3167 3168 3169 3167 3167 3167 3167 3170 3171 3170 3171 3171 3171 3172 3172 3172 3173 3175 3176 3177
3110 3109 3109 3109 3109 3110 3109 3108 3109 3108 3108 3108 3107 3107 3106 3105 3104 3102 3100 3096 3091 3092 3095 3093 3092 3092 3091 3090 3090 3090 3092 3092 3094 3099 3101 3101 3103 3105 3106 3109 3110 3110 3112 3116 3118 3118 3119 3124 3128 3131 3133 3136 3138 3140 3142 3145 3147 3149 3151 3153 3155 3157 3158 3159 3161 3163 3165 3166 3165 3167 3168 3165 3164 3164 3164 3167 3168 3167 3169 3169 3169 3170 3170 3170 3170 3172 3174 3175
3107 3106 3106 3106 3106 3107 3107 3106 3106 3106 3106 3106 3105 3105 3104 3103 3103 3101 3100 3096 3091 3091 3092 3091 3091 3090 3089 3089 3088 3089 3089 3088 3092 3097 3099 3099 3102 3103 3105 3107 3107 3109 3112 3115 3116 3115 3117 3123 3126 3128 3131 3133 3136 3138 3140 3143 3145 3147 3148 3151 3154 3156 3157 3158 3158 3159 3161 3161 3162 3165 3166 3163 3161 3161 3161 3164 3165 3165 3166 3166 3166 3168 3168 3168 3168 3170 3171 3173
3104 3104 3103 3104 3103 3104 3104 3104 3103 3103 3104 3104 3103 3103 3103 3102 3102 3100 3100 3098 3092 3090 3090 3090 3090 3089 3088 3088 3087 3088 3087 3087 3091 3094 3095 3098 3100 3101 3103 3104 3106 3108 3110 3114 3114 3112 3115 3120 3123 3125 3128 3130 3132 3134 3137 3141 3143 3144 3147 3150 3153 3154 3155 3156 3156 3157 3157 3158 3160 3162 3163 3163 3160 3157 3159 3162 3162 3163 3163 3162 3163 3164 3165 3166 3167 3168 3169 3171
3101 3100 3100 3101 3100 3100 3101 3102 3101 3100 3101 3101 3100 3101 3101 3101 3101 3099 3101 3100 3092 3088 3089 3088 3088 3088 3087 3087 3086 3087 3087 3087 3089 3091 3094 3097 3098 3099 3101 3102 3105 3107 3109 3111 3110 3110 3114 3118 3120 3122 3125 3126 3128 3132 3136 3139 3141 3143 3146 3149 3151 3152 3153 3154 3154 3155 3155 3157 3158 3158 3161 3163 3157 3153 3157 3160 3160 3160 3158 3158 3159 3160 3162 3163 3164 3166 3167 3169
3099 3097 3097 3098 3098 3097 3098 3099 3098 3098 3099 3099 3099 3099 3099 3099 3099 3099 3102 3099 3090 3087 3088 3087 3087 3087 3086 3085 3085 3086 3085 3087 3089 3090 3093 3095 3096 3097 3099 3101 3104 3106 3108 3109 3109 3112 3115 3117 3120 3122 3122 3123 3127 3132 3135 3137 3139 3142 3145 3148 3149 3150 3151 3152 3153 3153 3154 3154 3155 3155 3158 3159 3153 3150 3154 3156 3156 3155 3153 3154 3155 3156 3159 3161 3162 3164 3165 3167
3096 3095 3094 3094 3095 3094 3095 3096 3094 3095 3097 3097 3097 3097 3097 3097 3097 3098 3101 3096 3088 3087 3087 3085 3085 3085 3084 3084 3083 3084 3084 3085 3088 3090 3092 3093 3095 3097 3098 3101 3104 3105 3107 3108 3109 3112 3114 3117 3119 3120 3120 3123 3128 3131 3133 3136 3139 3141 3143 3145 3147 3148 3149 3150 3151 3151 3153 3152 3152 3152 3154 3155 3151 3147 3149 3150 3150 3150 3150 3151 3153 3154 3156 3157 3159 3161 3163 3164
3093 3092 3091 3091 3091 3091 3093 3093 3091 3092 3094 3094 3095 3095 3095 3095 3095 3096 3095 3090 3087 3086 3085 3084 3084 3083 3083 3083 3083 3083 3083 3084 3087 3089 3090 3092 3094 3095 3096 3098 3101 3103 3105 3106 3107 3110 3112 3114 3116 3117 3118 3122 3127 3129 3131 3135 3137 3138 3140 3143 3145 3146 3147 3149 3149 3150 3152 3151 3150 3150 3151 3154 3150 3144 3144 3146 3145 3147 3149 3149 3150 3152 3152 3154 3156 3158 3160 3162
3090 3089 3088 3087 3088 3088 3089 3089 3088 3090 3091 3092 3093 3093 3093 3094 3091 3089 3088 3088 3087 3084 3083 3084 3083 3082 3082 3083 3083 3083 3082 3083 3085 3087 3088 3090 3091 3092 3094 3095 3097 3100 3101 3102 3105 3107 3109 3110 3113 3115 3117 3120 3123 3125 3128 3131 3132 3134 3137 3139 3142 3144 3145 3147 3148 3149 3149 3148 3148 3148 3150 3151 3146 3140 3142 3144 3143 3145 3146 3146 3148 3150 3150 3152 3155 3157 3158 3160
3087 3086 3086 3084 3084 3085 3085 3084 3086 3088 3088 3088 3090 3090 3091 3090 3084 3081 3084 3086 3084 3081 3081 3082 3081 3082 3082 3082 3083 3083 3082 3082 3084 3086 3088 3089 3090 3091 3092 3094 3095 3097 3098 3100 3104 3105 3106 3108 3110 3112 3114 3116 3118 3120 3121 3124 3127 3129 3132 3135 3138 3140 3143 3146 3148 3148 3147 3146 3145 3146 3148 3146 3141 3139 3141 3142 3142 3143 3143 3144 3146 3148 3148 3150 3154 3156 3157 3158
3083 3082 3083 3082 3081 3080 3081 3082 3083 3085 3085 3085 3086 3087 3087 3084 3079 3078 3081 3082 3080 3080 3080 3080 3079 3080 3081 3081 3082 3081 3081 3082 3083 3085 3086 3087 3089 3089 3090 3092 3094 3096 3098 3100 3101 3102 3103 3103 3104 3107 3109 3111 3114 3115 3118 3123 3125 3127 3130 3133 3133 3134 3137 3141 3143 3143 3143 3142 3142 3144 3145 3141 3137 3137 3139 3139 3140 3141 3141 3142 3144 3146 3146 3148 3151 3154 3155 3155
3080 3079 3079 3079 3078 3076 3077 3079 3080 3081 3082 3082 3083 3082 3078 3076 3076 3078 3079 3079 3079 3079 3078 3078 3078 3079 3079 3079 3080 3080 3080 3081 3082 3084 3084 3085 3086 3087 3088 3089 3091 3094 3096 3097 3098 3100 3101 3099 3100 3105 3107 3109 3112 3114 3118 3122 3124 3125 3128 3129 3128 3129 3134 3137 3138 3138 3138 3139 3140 3140 3139 3135 3133 3135 3136 3138 3138 3139 3140 3140 3141 3143 3143 3145 3148 3150 3151 3152
3076 3076 3075 3075 3073 3073 3074 3075 3076 3077 3078 3079 3078 3074 3070 3071 3075 3078 3078 3078 3078 3077 3076 3076 3077 3077 3077 3077 3077 3078 3079 3079 3080 3081 3082 3083 3084 3085 3086 3087 3089 3091 3092 3094 3095 3097 3098 3097 3099 3104 3105 3107 3111 3113 3116 3118 3120 3121 3123 3122 3123 3128 3134 3135 3135 3135 3136 3137 3136 3135 3133 3132 3132 3133 3134 3136 3136 3137 3138 3138 3138 3139 3140 3142 3145 3146 3148 3150
3072 3072 3072 3070 3069 3070 3070 3071 3073 3073 3074 3074 3071 3066 3066 3071 3074 3076 3077 3077 3076 3075 3075 3075 3076 3075 3075 3075 3075 3076 3077 3078 3079 3080 3080 3081 3081 3082 3084 3086 3087 3088 3090 3092 3094 3095 3096 3096 3098 3101 3103 3105 3110 3113 3114 3115 3117 3118 3117 3118 3124 3129 3132 3132 3132 3134 3135 3135 3132 3131 3131 3131 3131 3131 3132 3133 3134 3135 3135 3135 3135 3136 3138 3139 3141 3143 3145 3148
3067 3068 3068 3066 3066 3066 3066 3067 3068 3069 3070 3069 3064 3063 3065 3068 3071 3073 3074 3075 3075 3074 3074 3074 3074 3074 3074 3074 3074 3074 3075 3077 3078 3078 3079 3079 3078 3079 3081 3083 3085 3087 3088 3091 3092 3092 3095 3095 3095 3098 3100 3103 3108 3110 3110 3111 3113 3114 3115 3118 3122 3125 3126 3127 3129 3130 3133 3133 3130 3128 3128 3128 3128 3129 3130 3132 3132 3132 3133 3133 3133 3134 3135 3137 3138 3140 3142 3145
3063 3064 3063 3061 3062 3063 3063 3063 3064 3065 3065 3062 3060 3061 3063 3065 3068 3070 3071 3072 3073 3072 3071 3072 3072 3072 3072 3072 3072 3073 3074 3075 3076 3077 3077 3077 3077 3077 3079 3081 3083 3084 3087 3088 3089 3090 3093 3093 3092 3095 3098 3100 3103 3103 3102 3104 3108 3111 3114 3116 3118 3120 3121 3122 3124 3125 3127 3129 3129 3127 3126 3124 3124 3126 3128 3129 3130 3130 3130 3131 3131 3132 3133 3134 3136 3137 3140 3143
3059 3060 3059 3058 3058 3058 3059 3059 3059 3060 3059 3057 3057 3060 3061 3063 3065 3067 3068 3069 3069 3069 3069 3069 3070 3070 3070 3071 3071 3071 3072 3072 3073 3075 3075 3076 3076 3075 3077 3080 3081 3082 3084 3085 3086 3088 3090 3090 3090 3092 3095 3095 3095 3094 3094 3098 3102 3105 3108 3110 3113 3116 3118 3119 3120 3119 3121 3123 3124 3125 3123 3120 3121 3124 3125 3127 3127 3128 3128 3129 3129 3130 3131 3132 3134 3135 3138 3141
3055 3056 3055 3054 3054 3054 3055 3055 3055 3055 3055 3054 3056 3058 3060 3061 3062 3063 3064 3065 3065 3065 3065 3066 3067 3068 3068 3069 3069 3069 3070 3070 3071 3072 3072 3073 3073 3073 3075 3077 3079 3080 3082 3082 3082 3084 3086 3087 3087 3089 3090 3089 3089 3091 3093 3097 3100 3102 3104 3106 3109 3112 3115 3116 3116 3115 3117 3118 3118 3119 3118 3115 3118 3122 3123 3124 3125 3126 3127 3127 3127 3128 3130 3130 3131 3134 3137 3139
3052 3052 3052 3050 3050 3051 3051 3050 3051 3051 3051 3051 3054 3056 3057 3057 3058 3059 3061 3061 3062 3062 3062 3062 3063 3064 3065 3066 3067 3068 3068 3067 3067 3068 3068 3069 3070 3071 3072 3074 3076 3078 3078 3078 3078 3080 3083 3084 3084 3085 3086 3086 3088 3091 3093 3095 3098 3101 3101 3103 3106 3108 3110 3111 3110 3111 3114 3115 3115 3115 3114 3112 3115 3119 3121 3122 3123 3124 3125 3125 3125 3126 3128 3129 3130 3132 3135 3137
3048 3049 3049 3047 3046 3048 3047 3047 3048 3047 3047 3049 3051 3052 3053 3053 3054 3055 3057 3058 3058 3059 3059 3059 3060 3061 3063 3064 3065 3065 3065 3064 3063 3064 3065 3065 3066 3068 3070 3071 3072 3074 3075 3074 3074 3077 3079 3079 3080 3081 3083 3085 3086 3089 3091 3093 3095 3096 3096 3098 3100 3101 3104 3106 3107 3110 3112 3111 3112 3114 3112 3111 3114 3116 3118 3120 3121 3122 3123 3123 3123 3124 3126 3127 3128 3131 3133 3135
3045 3046 3046 3043 3043 3044 3044 3044 3045 3044 3045 3046 3047 3048 3049 3050 3050 3052 3053 3054 3055 3056 3056 3056 3057 3058 3060 3061 3062 3062 3062 3062 3060 3060 3061 3062 3063 3065 3067 3068 3069 3070 3070 3069 3069 3072 3073 3073 3075 3078 3081 3082 3083 3083 3084 3086 3088 3088 3090 3092 3094 3097 3101 3103 3106 3108 3107 3106 3109 3109 3107 3108 3112 3113 3115 3116 3117 3119 3120 3121 3122 3123 3124 3125 3127 3129 3131 3132
3040 3042 3042 3040 3040 3041 3041 3041 3041 3041 3041 3042 3042 3044 3046 3046 3047 3049 3050 3051 3052 3053 3053 3053 3054 3055 3057 3058 3058 3058 3059 3059 3057 3057 3058 3058 3060 3062 3064 3065 3065 3066 3066 3064 3065 3067 3068 3068 3070 3073 3075 3076 3076 3075 3076 3079 3082 3083 3085 3088 3090 3093 3096 3099 3102 3103 3101 3102 3104 3103 3103 3106 3109 3111 3111 3113 3114 3115 3117 3118 3120 3121 3123 3124 3125 3127 3129 3130
3037 3037 3038 3038 3038 3038 3038 3037 3038 3038 3038 3038 3039 3041 3042 3043 3045 3046 3047 3047 3049 3050 3050 3050 3051 3052 3053 3054 3054 3054 3054 3055 3055 3054 3054 3055 3057 3058 3059 3060 3061 3062 3061 3059 3059 3062 3063 3063 3064 3066 3067 3069 3070 3071 3074 3077 3079 3080 3081 3084 3087 3089 3092 3095 3096 3095 3096 3099 3099 3098 3101 3104 3106 3108 3109 3111 3112 3113 3115 3116 3118 3119 3120 3122 3123 3125 3126 3128
3034 3034 3034 3035 3036 3035 3035 3035 3035 3035 3035 3036 3037 3038 3039 3041 3042 3043 3044 3044 3046 3047 3047 3047 3048 3050 3050 3051 3052 3051 3050 3052 3052 3051 3051 3052 3053 3054 3056 3057 3058 3058 3057 3054 3054 3057 3060 3060 3061 3062 3063 3065 3067 3070 3073 3075 3076 3077 3079 3081 3083 3085 3088 3090 3090 3090 3093 3095 3093 3095 3099 3100 3101 3105 3107 3108 3110 3111 3112 3114 3115 3116 3117 3119 3121 3122 3124 3125
3031 3031 3031 3032 3032 3032 3032 3033 3032 3033 3033 3033 3034 3035 3037 3038 3039 3040 3041 3041 3043 3044 3044 3044 3046 3047 3048 3049 3049 3047 3047 3048 3048 3047 3048 3050 3051 3052 3053 3054 3055 3056 3055 3052 3051 3054 3057 3057 3058 3060 3060 3062 3064 3067 3069 3071 3073 3075 3076 3077 3080 3082 3083 3084 3085 3088 3090 3090 3089 3093 3096 3097 3099 3102 3104 3106 3108 3109 3110 3111 3113 3114 3115 3116 3118 3119 3121 3123
3028 3028 3029 3029 3028 3028 3030 3030 3030 3030 3031 3031 3031 3032 3034 3035 3036 3036 3037 3038 3040 3041 3042 3041 3042 3044 3044 3045 3044 3042 3043 3044 3043 3044 3045 3047 3049 3050 3051 3051 3051 3053 3054 3053 3051 3053 3054 3055 3057 3058 3058 3058 3061 3063 3066 3068 3070 3072 3073 3074 3077 3078 3079 3081 3083 3085 3086 3086 3088 3091 3092 3093 3096 3099 3101 3103 3105 3106 3108 3109 3110 3111 3112 3114 3115 3117 3119 3120
3025 3024 3025 3025 3024 3025 3027 3027 3026 3026 3028 3029 3029 3029 3030 3031 3032 3033 3034 3035 3037 3039 3039 3038 3039 3040 3040 3041 3041 3039 3039 3040 3040 3041 3043 3045 3046 3048 3049 3049 3048 3049 3052 3052 3052 3053 3053 3053 3055 3057 3056 3055 3057 3060 3062 3064 3066 3068 3069 3070 3073 3075 3076 3078 3079 3081 3082 3083 3085 3088 3088 3088 3092 3096 3098 3101 3102 3103 3104 3106 3107 3109 3110 3111 3113 3115 3116 3117
3022 3021 3021 3021 3021 3022 3023 3024 3024 3024 3025 3026 3026 3026 3027 3029 3030 3030 3031 3033 3034 3036 3036 3036 3037 3037 3037 3038 3038 3036 3036 3037 3037 3039 3041 3042 3044 3046 3047 3046 3046 3047 3048 3050 3051 3051 3052 3052 3053 3055 3054 3052 3053 3057 3059 3061 3063 3063 3063 3065 3068 3071 3073 3074 3076 3078 3079 3080 3082 3083 3082 3084 3089 3093 3095 3097 3099 3100 3101 3103 3104 3106 3107 3108 3110 3112 3113 3114
3019 3019 3019 3018 3017 3018 3020 3021 3021 3021 3021 3023 3023 3023 3024 3026 3026 3027 3027 3030 3032 3033 3034 3034 3034 3033 3033 3034 3033 3032 3032 3033 3034 3036 3037 3037 3040 3043 3044 3044 3045 3046 3047 3048 3048 3049 3050 3050 3050 3052 3051 3049 3051 3054 3056 3058 3059 3056 3056 3060 3063 3066 3069 3071 3073 3075 3077 3078 3078 3077 3078 3082 3086 3088 3090 3092 3095 3096 3098 3100 3101 3102 3104 3105 3107 3108 3109 3110